This is the latest recevied weather packets stored in our database for station/object AD6NH. If no packets are shown the sender has not sent any weather packets the latest 10 day(s).
| Time | Temp. | Humidity | Pressure | Rain* | Wind** | Luminosity | Snow |
|---|---|---|---|---|---|---|---|
| 1777952823 | 15° C | 75% | 1015.8 hPa | 0 mm | - | - | - |
| 1777952222 | 15° C | 74% | 1015.7 hPa | 0 mm | - | - | - |
| 1777951622 | 15.56° C | 72% | 1015.5 hPa | 0 mm | - | - | - |
| 1777951022 | 15.56° C | 72% | 1015.5 hPa | 0 mm | - | - | - |
| 1777950422 | 15.56° C | 71% | 1015.5 hPa | 0 mm | - | - | - |
| 1777949822 | 15.56° C | 71% | 1015.5 hPa | 0 mm | - | - | - |
| 1777949222 | 15.56° C | 71% | 1015.5 hPa | 0 mm | - | - | - |
| 1777948622 | 15.56° C | 71% | 1015.5 hPa | 0 mm | - | - | - |
| 1777948022 | 15.56° C | 72% | 1015.4 hPa | 0 mm | - | - | - |
| 1777947422 | 16.11° C | 73% | 1015.4 hPa | 0 mm | - | - | - |
| 1777946822 | 16.11° C | 70% | 1015.3 hPa | 0 mm | - | - | - |
| 1777946222 | 16.67° C | 69% | 1015.3 hPa | 0 mm | - | - | - |
| 1777945623 | 16.67° C | 67% | 1015.3 hPa | 0 mm | - | - | - |
| 1777945022 | 17.22° C | 60% | 1015.3 hPa | 0 mm | - | - | - |
| 1777944422 | 17.78° C | 57% | 1015.3 hPa | 0 mm | - | - | - |
| 1777943823 | 17.78° C | 57% | 1015.4 hPa | 0 mm | - | - | - |
| 1777943222 | 18.33° C | 56% | 1015.4 hPa | 0 mm | - | - | - |
| 1777942622 | 18.33° C | 55% | 1015.4 hPa | 0 mm | - | - | - |
| 1777942022 | 18.33° C | 55% | 1015.4 hPa | 0 mm | - | - | - |
| 1777941422 | 18.33° C | 53% | 1015.4 hPa | 0 mm | - | - | - |
| 1777940822 | 18.89° C | 52% | 1015.5 hPa | 0 mm | - | - | - |
| 1777940222 | 18.89° C | 52% | 1015.5 hPa | 0 mm | - | - | - |
| 1777939623 | 18.89° C | 52% | 1015.4 hPa | 0 mm | - | - | - |
| 1777939022 | 20° C | 49% | 1015.3 hPa | 0 mm | - | - | - |
| 1777938422 | 20.56° C | 47% | 1015.2 hPa | 0 mm | - | - | - |
* Rain latest hour (hover to see other rain measurements)
** Current wind speed in m/s (hover to see current wind gust speed)